Погода в Аделаиде

Австралия     34°57′05″S   138°35′37″E
темп.,
°C
ветер,
м/с
пор.,
м/с
влажн.,
%
обл.,
%
осадки,
мм/ч
давл.,
гПа
погр.,
м
6 марта, сб
сб601:30+16вюв597112 0.0 1015372
04:30+15вюв486442 0.0 1013334
07:30+14вюв356247 0.0 1013254
10:30+18в124351 0.0 1014346
13:30+21юз3243100 0.0 1013320
16:30+21ююз554692 0.0 1010203
19:30+23юв3544100 0.0 1010196
22:30+21вюв3446100 0.0 1010144
7 марта, вс
вс701:30+21в2250100 0.0 100985
04:30+21св124698 0.0 100831
07:30+21всв244261 0.0 100978
10:30+23в114280 0.0 100944
13:30+26зюз313244 0.0 1007361
16:30+23ю574570 0.0 1006186
19:30+24в4644100 0.0 1007165
22:30+23юв4550100 0.1 1009130
8 марта, пн
пн801:30+22вюв2355100 0.0 100890
04:30+21юв445976 0.1 1008117
07:30+19юв576876 0.0 1009272
10:30+20юв586476 0.1 1011366
13:30+25ююв445173 0.0 1010501
16:30+25ю875382 0.0 1009817
19:30+20ююв8117065 0.0 1011476
22:30+17юв7127883 0.0 1013529
9 марта, вт
вт901:30+17юв7117953 0.0 1013529
04:30+17юв6108056 0.0 1014569
07:30+16юв6118028 0.0 1015517
10:30+19юв696318 0.0 1016656
13:30+23ююв69510 0.0 1015629
16:30+23ююв710530 0.0 1014632
19:30+19ююв812640 0.0 1015596
22:30+17юв6116719 0.0 1017500
10 марта, ср
ср1001:30+19юв6115895 0.0 1017465
04:30+18вюв595784 0.2 1016457
07:30+17вюв4760100 0.1 1018387
10:30+20вюв365192 0.1 1018507
13:30+24ю244642 0.0 1017556
16:30+25ю454522 0.0 1015843
19:30+21ююв69560 0.0 1016331
22:30+18юв47640 0.0 1017273